EGYMEGKK

Guest
Details From EGYM - Marham
To EGKK - London Gatwick
Flight Number -
Tags Generated
Created
Modified
Stats Distance 94 nm / 174 km
Max Altitude 0 ft / 0 m
Waypoints 2
Social Downloads 0
Likes 0
Share VATSIM

Download

Looking for another format? Having issues loading an existing format? Contact us
Advertisement - Login to hide

Notes

Generated

Route

EGYM EGKK

ID Type Via Altitude Latitude Longitude Leg Dist Tot Dist Heading (true) Name
O EGYM APT - 0 ft / 0 m 52.63902˚ 0.55567˚ - 0 nm - -
O EGKK APT - 0 ft / 0 m 51.14691˚ -0.21257˚ 94 nm 94 nm 198° / 197° -

Altitude Profile

Advertisement - Login to hide

EGYM

Details ICAO EGYM (KNF)
Name RAF Marham
Region United Kingdom
Timezone Europe/London (UTC+1.0)
Stats Elevation 75 ft / 23 m (AMSL)
Location 52.647657° 0.554049°
Runways 2
Magnetic Variation 0.266° W

METAR

EGYM 230650Z 01013KT 3500 BR BKN004 09/08 Q1024 YLO2 BECMG 5000 HZ OVC005 YLO1

Decode

TAF

Not found

Departure Runways

ID Width Length Bearing (true) Bearing (mag) Surface Threshold Offset Overrun Length
01 299 ft / 91 m 5,896 ft / 1,797 m 8.58° 8.85° Concrete 0 ft / 0 m 0 ft / 0 m
06 200 ft / 61 m 9,111 ft / 2,777 m 55.35° 55.62° Asphalt 0 ft / 0 m 75 ft / 23 m
19 299 ft / 91 m 5,896 ft / 1,797 m 188.58° 188.85° Concrete 0 ft / 0 m 0 ft / 0 m
24 200 ft / 61 m 9,111 ft / 2,777 m 235.37° 235.64° Asphalt 0 ft / 0 m 59 ft / 18 m

EGKK

Details ICAO EGKK (LGW)
Name London Gatwick
Region United Kingdom
Timezone Europe/London (UTC+1.0)
Stats Elevation 196 ft / 60 m (AMSL)
Location 51.148753° -0.192472°
Runways 2
Magnetic Variation 0.368° W

METAR

EGKK 230720Z 35011KT 320V030 9999 SCT014 13/09 Q1023

Decode

TAF

TAF EGKK 230500Z 2306/2412 01012KT 9999 SCT040 PROB30 TEMPO 2306/2308 9000 BKN012 PROB30 TEMPO 2314/2317 7000 SHRA TEMPO 2321/2412 6000 SHRA PROB30 TEMPO 2321/2403 03015G25KT 4000 +SHRA PROB30 TEMPO 2410/2412 06015G25KT 4000 +SHRA

Decode

Destination Runways

ID Width Length Bearing (true) Bearing (mag) Surface Threshold Offset Overrun Length
08L 148 ft / 45 m 8,377 ft / 2,553 m 77.69° 78.06° Asphalt 1,053 ft / 321 m 0 ft / 0 m
08R 148 ft / 45 m 10,341 ft / 3,152 m 77.59° 77.96° Asphalt 1,289 ft / 393 m 0 ft / 0 m
26L 148 ft / 45 m 10,341 ft / 3,152 m 257.63° 258.00° Asphalt 879 ft / 268 m 600 ft / 183 m
26R 148 ft / 45 m 8,377 ft / 2,553 m 257.71° 258.08° Asphalt 1,365 ft / 416 m 0 ft / 0 m

Approach Navaids

Runway Type Ident Frequency Range Bearing (true) Bearing (mag) Slope Elevation
08R Localiser IGG 110.90 MHz 18 nm / 33 km 77.66° 78.03° - 196 ft / 60 m (AMSL)
08R Glidescope IGG 110.90 MHz 10 nm / 19 km 77.61° 77.98° 3.00° 196 ft / 60 m (AMSL)
08R DME IGG 110.90 MHz 18 nm / 33 km - - - 274 ft / 84 m (AMSL)
26L Localiser IWW 110.90 MHz 18 nm / 33 km 257.42° 257.78° - 196 ft / 60 m (AMSL)
26L Glidescope IWW 110.90 MHz 10 nm / 19 km 257.61° 257.98° 3.00° 196 ft / 60 m (AMSL)
26L DME IWW 110.90 MHz 18 nm / 33 km - - - 274 ft / 84 m (AMSL)